Location: Avenches
(46.8809°N, 7.0410°E)
Time: 12:44:17
(UTC+00:00)

X-37B - Pass Details

Date: 13 March 2021
Orbit: 380 x 394 km, 45.0° (Epoch: 07 April)

Event Time Altitude Azimuth Distance (km) Brightness Sun altitude
Rises 18:54:29 0° 234° (SW) 2,265 5.1 -14.4°
Reaches altitude 10° 18:56:39 10° 225° (SW) 1,415 3.9 -14.7°
Maximum altitude 18:59:33 32° 159° (SSE) 694 1.5 -15.2°
Enters shadow 19:00:00 31° 141° (SE) 720 1.5 -15.3°
